Home > Weather > Hoofddorp > Past weeks

Flag for Netherlands Past Weather in Hoofddorp, Netherlands — Yesterday and Last 2 Weeks

Now
68 °F

Drizzle. Broken clouds.


Feels Like: 68 °F
Forecast: 59 / 72 °F
Wind: 12 mph from West

Location: Amsterdam Schiphol Airport

Current Time: Jul 25, 2016 at 2:03:51 PM

Latest Report: Jul 25, 2016 at 1:25 PM


Visibility: 5 mi

Pressure: 30.07 "Hg

Humidity: 88%

Dew Point: 64 °F

Location of HoofddorpLocation

Past Weather in Hoofddorp — Graph

°F

Hoofddorp Temperature Yesterday

Maximum temperature yesterday: 75 °F (at 1:25 PM)
Minimum temperature yesterday: 63 °F (at 11:25 PM)
Average temperature yesterday: 69 °F

High & Low Weather Summary for the Past Weeks

 TemperatureHumidityPressure
High91 °F (Jul 20, 3:25 PM)100% (Jul 17, 11:25 PM)30.27 "Hg (Jul 17, 11:25 PM)
Low50 °F (Jul 14, 3:55 AM)38% (Jul 20, 2:55 PM)29.71 "Hg (Jul 11, 3:55 AM)
Average67 °F75%30.03 "Hg
* Reported Jul 10 12:25 PM — Jul 25 12:25 PM, Hoofddorp, Weather by CustomWeather, © 2016

Note: Actual official high and low records may vary slightly from our data, if they occured in-between our weather recording intervals... More about our weather records

Advertising

Hoofddorp Weather History for the Previous 24 Hours

Scroll right to see more
 ConditionsComfort  
Time TempWeatherWind HumidityBarometerVisibility
12:25 PM
Mon, Jul 25
68 °FDrizzle. Partly sunny.12 mph83%30.07 "Hg5 mi
11:55 AM68 °FDrizzle. Partly sunny.12 mph83%30.07 "HgN/A
11:25 AM68 °FPartly sunny.12 mph88%30.07 "HgN/A
10:55 AM68 °FDrizzle. Partly sunny.10 mph83%30.07 "HgN/A
10:25 AM68 °FPartly sunny.13 mph83%30.07 "HgN/A
9:55 AM68 °FPartly sunny.10 mph83%30.07 "HgN/A
9:25 AM68 °FBroken clouds.12 mph83%30.07 "HgN/A
8:55 AM66 °FPartly sunny.9 mph88%30.04 "HgN/A
8:25 AM66 °FPartly sunny.9 mph88%30.04 "HgN/A
7:55 AM66 °FPartly sunny.9 mph88%30.04 "HgN/A
7:25 AM66 °FPartly sunny.9 mph88%30.04 "HgN/A
6:55 AM66 °FPartly sunny.8 mph88%30.04 "HgN/A
6:25 AM66 °FPassing clouds.7 mph83%30.04 "HgN/A
5:55 AM66 °FPassing clouds.8 mph83%30.04 "HgN/A
5:25 AM63 °FPassing clouds.7 mph94%30.04 "HgN/A
4:55 AM64 °FPassing clouds.7 mph88%30.04 "HgN/A
4:25 AM64 °FPassing clouds.6 mph88%30.04 "HgN/A
3:55 AM64 °FPartly cloudy.8 mph88%30.07 "HgN/A
3:25 AM64 °FPassing clouds.7 mph88%30.07 "HgN/A
2:55 AM63 °FPassing clouds.7 mph88%30.07 "HgN/A
2:25 AM63 °FPassing clouds.5 mph88%30.07 "HgN/A
1:55 AM63 °FClear.5 mph88%30.07 "Hg10 mi
1:25 AM63 °FClear.5 mph88%30.07 "Hg10 mi
12:55 AM63 °FClear.6 mph88%30.07 "Hg10 mi
12:25 AM64 °FPassing clouds.7 mph83%30.07 "HgN/A
11:55 PM
Sun, Jul 24
64 °FPassing clouds.7 mph83%30.07 "HgN/A
11:25 PM63 °FPassing clouds.6 mph88%30.09 "HgN/A
10:55 PM64 °FPassing clouds.7 mph83%30.09 "HgN/A
10:25 PM66 °FPassing clouds.6 mph78%30.09 "HgN/A
9:55 PM68 °FPassing clouds.10 mph73%30.07 "HgN/A
9:25 PM70 °FPassing clouds.8 mph64%30.07 "HgN/A
8:55 PM70 °FPassing clouds.8 mph64%30.07 "HgN/A
8:25 PM70 °FPassing clouds.9 mph69%30.07 "HgN/A
7:55 PM70 °FPassing clouds.10 mph69%30.07 "HgN/A
7:25 PM72 °FPassing clouds.12 mph69%30.07 "HgN/A
6:55 PM72 °FPassing clouds.10 mph73%30.07 "HgN/A
6:25 PM72 °FSunny.9 mph73%30.07 "Hg10 mi
5:55 PM72 °FPassing clouds.10 mph69%30.07 "HgN/A
5:25 PM73 °FPassing clouds.9 mph65%30.07 "HgN/A
4:55 PM73 °FPassing clouds.12 mph61%30.09 "HgN/A
4:25 PM72 °FPassing clouds.13 mph69%30.09 "HgN/A
3:55 PM75 °FPassing clouds.8 mph69%30.09 "HgN/A
3:25 PM73 °FPassing clouds.9 mph69%30.09 "HgN/A
2:55 PM73 °FPassing clouds.14 mph69%30.09 "HgN/A
2:25 PM75 °FPassing clouds.9 mph69%30.09 "HgN/A
Weather by CustomWeather, © 2016

See weather overviewHow to use our weather pages